Regional Weather Roundup
Issued by NWS Mt. Holly, NJ

Home | Current Version | Previous Version | Text Only | Print | Product List | Glossary On
Versions: 1 2 3 4 5 6 7 8 9 10 11 12 13 14 15 16 17 18 19 20 21 22 23 24 25 26 27 28 29 30 31 32 33 34 35 36 37 38 39 40 41 42 43 44 45 46 47 48 49 50
000
ASUS41 KPHI 100512
RWRPHI

REGIONAL WEATHER ROUNDUP
NATIONAL WEATHER SERVICE MOUNT HOLLY NJ
1200 AM EST WED FEB 10 2016

NOTE:  "FAIR" INDICATES FEW OR NO CLOUDS BELOW 12,000 FEET WITH NO
SIGNIFICANT WEATHER AND/OR OBSTRUCTIONS TO VISIBILITY.

 * = STATION DOES NOT REPORT PRECIPITATION (E.G. RAIN, SNOW, ETC.)
        OR FOG.

NJZ015>026-100600-
SOUTHERN NEW JERSEY

CITY           SKY/WX    TMP DP  RH WIND       PRES   REMARKS
POMONA         LGT SNOW  33  31  92 NW5       29.62S FOG     WCI  29
WILDWOOD*      CLOUDY    36  30  80 W12       29.64S WCI  27
MILLVILLE      CLOUDY    33  32  96 W6        29.63R FOG     WCI  28
WRIGHTSTOWN    LGT SNOW  31  31 100 NW5       29.59S FOG     WCI  27
MOUNT HOLLY    CLOUDY    32  31  96 CALM      29.62S FOG
TRENTON        LGT SNOW  31  30  96 CALM      29.60S FOG

$$
NJZ001>014-100600-
NORTHERN NEW JERSEY

CITY           SKY/WX    TMP DP  RH WIND       PRES   REMARKS
SUSSEX         LGT SNOW  30  27  88 CALM      29.57S FOG
ANDOVER*         N/A     30  28  92 CALM      29.57F
MORRISTOWN     LGT SNOW  30  28  93 CALM      29.60F
NEWARK         LGT SNOW  33  29  85 W5        29.61S FOG     WCI  29
TETERBORO      CLOUDY    33  25  72 CALM      29.60S
CALDWELL       LGT SNOW  31  28  89 CALM      29.61S FOG
SOMERVILLE     LGT SNOW  31  29  92 CALM      29.59S VSB 1
ALLAIRE*       CLOUDY    30  25  80 CALM      29.60S
TOMS RIVER*    CLOUDY    30  28  93 CALM      29.61S

$$
PAZ043-044-047-054-055-060>062-066>071-100600-
EASTERN PENNSYLVANIA

CITY           SKY/WX    TMP DP  RH WIND       PRES   REMARKS
PHILADELPHIA   CLOUDY    35  31  85 W6        29.63S WCI  30
NORTH PHILA    CLOUDY    33  31  92 CALM      29.63S FOG
BLUE BELL*       N/A     30  30 100 CALM      29.60S
DOYLESTOWN     CLOUDY    30  29  96 SW3       29.59S FOG
QUAKERTOWN*    CLOUDY    30  30 100 CALM      29.60R
PERKASIE*      CLOUDY    30  30 100 SW6       29.60R FOG     WCI  24
POTTSTOWN      FOG       28  27  96 CALM      29.62S VSB 1/4
LANCASTER      LGT SNOW  30  28  92 W12       29.62S FOG     WCI  20
COATESVILLE    LGT SNOW  30  30 100 W7        29.61S WCI  23
READING        CLOUDY    31  28  89 SW3       29.60S FOG
ALLENTOWN      CLOUDY    32  28  86 SW5       29.59S FOG     WCI  27
MOUNT POCONO   LGT SNOW  26  23  88 W8        29.49S FOG     WCI  18
HAZLETON       LGT SNOW  30  28  93 CALM      29.54S
LEHIGHTON      LGT SNOW  28  28 100 CALM      29.59S
WILKES BARRE   LGT SNOW  30  28  92 SW5       29.54S VSB 1   WCI  25

$$
DEZALL-MDZ008-012-015-019-020-100600-
DELAWARE AND EASTERN MARYLAND

CITY           SKY/WX    TMP DP  RH WIND       PRES   REMARKS
WILMINGTON     CLOUDY    33  31  92 W6        29.64R FOG     WCI  28
DOVER          CLOUDY    34  34 100 W9        29.64R WCI  27
GEORGETOWN     CLOUDY    34  30  85 W6        29.66R WCI  29
EASTON         CLOUDY    34  27  76 NW9       29.71S WCI  27
PATUXENT       CLOUDY    33  21  61 NW12      29.69R WCI  24
OCEAN CITY     CLOUDY    35  31  85 NW7       29.66S WCI  29
WALLOPS ISLAND CLOUDY    35  33  92 NW6       29.68S WCI  30
CAMBRIDGE      CLOUDY    32  25  74 W7        29.68R WCI  26
SALISBURY      CLOUDY    34  27  75 W7        29.66S WCI  28

$$
PAZ001-021-NYZ056-072-MDZ011-DCZ001-100600-
OTHER NEARBY LOCATIONS

CITY           SKY/WX    TMP DP  RH WIND       PRES   REMARKS
HARRISBURG     FLURRIES  31  25  78 W12       29.63S WCI  22
STATE COLLEGE  CLOUDY    28  24  87 W10G18    29.61S WCI  18
WILLIAMSPORT   CLOUDY    32  27  81 W10       29.57S WCI  24
BINGHAMTON     LGT SNOW  29  27  92 W3        29.49S VSB 1
NEW YORK CITY  CLOUDY    34  26  72 CALM      29.62S
BALTIMORE      CLOUDY    31  22  69 W15G25    29.67R WCI  20
WASHINGTON DC  CLOUDY    32  19  58 NW10      29.71R WCI  24

$$



USA.gov is the U.S. government's official web portal to all federal, state and local government web resources and services.